Regional Weather Roundup
Issued by NWS Jackson, KY

Home | Current Version | Previous Version | Graphics & Text | Print | Product List | Glossary On
Versions: 1 2 3 4 5 6 7 8 9 10 11 12 13 14 15 16 17 18 19 20 21 22 23 24 25 26 27 28 29 30 31 32 33 34 35 36 37 38 39 40 41 42 43 44 45 46 47 48 49 50
000
ASUS43 KJKL 272010
RWRJKL

EAST KENTUCKY HOURLY WEATHER ROUNDUP
NATIONAL WEATHER SERVICE JACKSON KY
400 PM EDT WED MAY 27 2015

NOTE: "FAIR" INDICATES FEW OR NO CLOUDS BELOW 12,000 FEET WITH
NO SIGNIFICANT WEATHER AND/OR OBSTRUCTIONS TO VISIBILITY.

* THESE REPORTS ARE NOT UNDER NWS QUALITY CONTROL AND MAY NOT
  REPORT WEATHER SUCH AS PRECIPITATION AND FOG.

KYZ079-080-083-085-087-088-110-112-115-119-120-272100
...EASTERN KENTUCKY...

CITY           SKY/WX    TMP DP  RH WIND       PRES   REMARKS
JACKSON        MOSUNNY   81  64  56 CALM      30.19F
LONDON         MOSUNNY   81  58  45 W7        30.18S
SOMERSET*      PTSUNNY   79  61  53 S5        30.17F
MONTICELLO*    MOSUNNY   82  65  56 S10       30.19F
MIDDLESBORO*   MOSUNNY   80  62  54 S7        30.19F
HARLAN APT*    PTCLDY    81  59  47 MISG      30.20F
HAZARD APT*    PTCLDY    81  61  50 W5        30.18F
BLACK MTN*       N/A     70  59  68 SW2         N/A
PIKEVILLE APT* SUNNY     79  63  57 W8        30.19F
BIG SANDY*     PTCLDY    82  60  48 SW7       30.18F
MOREHEAD APT*  PTCLDY    81  64  57 S13G20    30.17S
$$

KYZ035-036-041-042-044-050-067-078-099-272100
...CENTRAL KENTUCKY...

CITY           SKY/WX    TMP DP  RH WIND       PRES   REMARKS
MT STERLING*   MOSUNNY   81  64  57 SW13G20   30.17S
FLEMING/MASON* PTSUNNY   81  64  57 SW13G20   30.15S
DANVILLE*      PTSUNNY   81  64  57 SW9       30.17S
RICHMOND*      MOSUNNY   81  63  54 S8        30.15F
LEXINGTON      PTSUNNY   80  64  58 SW13G18   30.14S
FRANKFORT      TSTM      67  60  78 S10       30.15R
$$

KYZ091>093-OHZ055-061-077-WVZ005-015-034-035-042-272100
...SOUTHERN OHIO/WEST VIRGINIA...

CITY           SKY/WX    TMP DP  RH WIND       PRES   REMARKS
COVINGTON      PTSUNNY   79  64  60 S13       30.09F
COLUMBUS       PTSUNNY   81  62  52 S16       30.07F
DAYTON         PTSUNNY   83  61  47 SW15G29   30.06F
WILMINGTON     PTSUNNY   81  60  48 SW21G28   30.09F
HUNTINGTON     MOSUNNY   83  63  50 SW10      30.14F
CHARLESTON     MOSUNNY   82  60  47 SW9       30.15F
PINEVILLE*     SUNNY     84  61  45 MISG      30.24F
BECKLEY        SUNNY     80  56  43 W8        30.23F
BLUEFIELD      MOSUNNY   81  54  39 W10G17    30.27S
$$

VAZ002-007-008-TNZ017-027-036-066-071-272100
...SOUTHWEST VIRGINIA/EAST TENNESSEE...

CITY           SKY/WX    TMP DP  RH WIND       PRES   REMARKS
WISE*          MOSUNNY   79  54  41 CALM      30.26F
JONESVILLE*    PTCLDY    81  57  44 SW7       30.23F
ABINGDON*      PTSUNNY   81  59  47 SW6       30.24S
BRISTOL        PTSUNNY   84  58  40 W10       30.21F
KNOXVILLE      PTSUNNY   82  58  43 SW9G17    30.19S
OAK RIDGE      MOSUNNY   82  62  50 SW5       30.21S
CROSSVILLE     MOSUNNY   79  61  53 VRB6      30.22F
NASHVILLE      CLOUDY    70  66  87 SW3       30.20S
$$

...KEY TO REMARKS...
VSB - VISIBILITY IN MILES
WCI - WIND CHILL INDEX
HX  - HEAT INDEX

$$



USA.gov is the U.S. government's official web portal to all federal, state and local government web resources and services.